Previsão horária em Cedzyna

Hoje, 27 Julho, Terça-feira

Tempo Temperatura Precipitação Vento Pressão Humidade
00:00 +20°C° 0.9 mm 2 m/s 736 mmHg 84%
01:00 +20°C° 0.9 mm 2 m/s 736 mmHg 87%
02:00 +19°C° 0.4 mm 2 m/s 736 mmHg 89%
03:00 +19°C° 0.4 mm 2 m/s 736 mmHg 91%
04:00 +20°C° 0.4 mm 1 m/s 735 mmHg 93%
05:00 +20°C° 0.3 mm 2 m/s 736 mmHg 91%
06:00 +21°C° 0.3 mm 2 m/s 736 mmHg 88%
07:00 +21°C° 0.3 mm 3 m/s 737 mmHg 86%
08:00 +24°C° 0 mm 3 m/s 737 mmHg 79%
09:00 +25°C° 0 mm 3 m/s 737 mmHg 72%
10:00 +26°C° 0 mm 3 m/s 737 mmHg 65%
11:00 +27°C° 0 mm 3 m/s 737 mmHg 62%
12:00 +28°C° 0 mm 3 m/s 737 mmHg 58%
13:00 +28°C° 0 mm 3 m/s 738 mmHg 55%
14:00 +29°C° 0 mm 2 m/s 737 mmHg 53%
15:00 +29°C° 0 mm 2 m/s 737 mmHg 52%
16:00 +29°C° 0 mm 2 m/s 737 mmHg 50%
17:00 +28°C° 0 mm 1 m/s 737 mmHg 56%
18:00 +26°C° 0 mm 1 m/s 737 mmHg 62%
19:00 +25°C° 0 mm 1 m/s 737 mmHg 68%
20:00 +24°C° 0 mm 1 m/s 737 mmHg 70%
21:00 +23°C° 0 mm 1 m/s 737 mmHg 72%
22:00 +20°C° 0 mm 0 m/s 737 mmHg 74%
23:00 +22°C° 0 mm 1 m/s 737 mmHg 75%

Amanhã, 28 Julho, Quarta-feira

Tempo Temperatura Precipitação Vento Pressão Humidade
00:00 +21°C° 0 mm 1 m/s 737 mmHg 77%
01:00 +21°C° 0 mm 1 m/s 737 mmHg 79%
02:00 +21°C° 0 mm 1 m/s 737 mmHg 81%
03:00 +19°C° 0 mm 2 m/s 737 mmHg 84%
04:00 +19°C° 0 mm 2 m/s 736 mmHg 86%
05:00 +21°C° 0 mm 2 m/s 736 mmHg 81%
06:00 +23°C° 0 mm 2 m/s 736 mmHg 75%
07:00 +25°C° 0 mm 2 m/s 736 mmHg 70%
08:00 +27°C° 0 mm 3 m/s 736 mmHg 65%
09:00 +28°C° 0 mm 3 m/s 736 mmHg 59%
10:00 +30°C° 0 mm 3 m/s 736 mmHg 54%
11:00 +30°C° 0.1 mm 3 m/s 735 mmHg 53%
12:00 +31°C° 0.1 mm 3 m/s 735 mmHg 51%
13:00 +31°C° 0.1 mm 2 m/s 735 mmHg 50%
14:00 +30°C° 0.6 mm 3 m/s 735 mmHg 57%
15:00 +28°C° 0.6 mm 5 m/s 735 mmHg 65%
16:00 +26°C° 0.6 mm 6 m/s 735 mmHg 72%
17:00 +25°C° 0.2 mm 5 m/s 735 mmHg 78%
18:00 +22°C° 0.2 mm 4 m/s 735 mmHg 85%
19:00 +21°C° 0.2 mm 2 m/s 735 mmHg 91%
20:00 +20°C° 0 mm 2 m/s 735 mmHg 93%
21:00 +20°C° 0 mm 2 m/s 736 mmHg 95%
22:00 +19°C° 0 mm 2 m/s 736 mmHg 96%
23:00 +19°C° 0 mm 2 m/s 736 mmHg 96%

Depois de amanhã, 29 Julho, Quinta-feira

Tempo Temperatura Precipitação Vento Pressão Humidade
00:00 +19°C° 0 mm 2 m/s 736 mmHg 96%
01:00 +19°C° 0 mm 2 m/s 736 mmHg 96%
02:00 +18°C° 0 mm 2 m/s 736 mmHg 96%
03:00 +18°C° 0 mm 2 m/s 737 mmHg 96%
04:00 +17°C° 0 mm 2 m/s 737 mmHg 96%
05:00 +18°C° 0 mm 3 m/s 737 mmHg 89%
06:00 +19°C° 0 mm 3 m/s 737 mmHg 81%
07:00 +20°C° 0 mm 3 m/s 737 mmHg 73%
08:00 +21°C° 0 mm 3 m/s 737 mmHg 66%
09:00 +24°C° 0 mm 3 m/s 738 mmHg 60%
10:00 +25°C° 0 mm 3 m/s 738 mmHg 53%
11:00 +26°C° 0 mm 3 m/s 737 mmHg 51%
12:00 +27°C° 0 mm 3 m/s 737 mmHg 48%
13:00 +28°C° 0 mm 3 m/s 737 mmHg 45%
14:00 +28°C° 0 mm 3 m/s 737 mmHg 44%
15:00 +28°C° 0 mm 3 m/s 737 mmHg 43%
16:00 +28°C° 0 mm 3 m/s 736 mmHg 42%
17:00 +27°C° 0 mm 3 m/s 736 mmHg 50%
18:00 +25°C° 0 mm 2 m/s 736 mmHg 57%
19:00 +23°C° 0 mm 2 m/s 736 mmHg 64%
20:00 +23°C° 0 mm 1 m/s 736 mmHg 64%
21:00 +22°C° 0 mm 1 m/s 736 mmHg 63%
22:00 +21°C° 0 mm 1 m/s 736 mmHg 63%
23:00 +21°C° 0 mm 1 m/s 736 mmHg 64%

30 Julho, Sexta-feira

Tempo Temperatura Precipitação Vento Pressão Humidade
00:00 +20°C° 0 mm 1 m/s 736 mmHg 64%
01:00 +19°C° 0 mm 2 m/s 736 mmHg 65%
02:00 +19°C° 0 mm 2 m/s 735 mmHg 67%
03:00 +19°C° 0 mm 2 m/s 735 mmHg 69%
04:00 +19°C° 0 mm 2 m/s 735 mmHg 70%
05:00 +20°C° 0 mm 2 m/s 735 mmHg 69%
06:00 +21°C° 0 mm 2 m/s 735 mmHg 69%
07:00 +22°C° 0 mm 3 m/s 735 mmHg 68%
08:00 +25°C° 0 mm 3 m/s 735 mmHg 63%
09:00 +26°C° 0 mm 3 m/s 735 mmHg 58%
10:00 +28°C° 0 mm 3 m/s 735 mmHg 53%
11:00 +28°C° 0 mm 3 m/s 735 mmHg 54%
12:00 +28°C° 0 mm 3 m/s 734 mmHg 55%
13:00 +27°C° 0 mm 3 m/s 734 mmHg 56%
14:00 +28°C° 0 mm 3 m/s 734 mmHg 54%
15:00 +29°C° 0 mm 3 m/s 734 mmHg 51%
16:00 +29°C° 0 mm 3 m/s 733 mmHg 49%
17:00 +28°C° 0 mm 3 m/s 733 mmHg 56%
18:00 +26°C° 0 mm 2 m/s 733 mmHg 64%
19:00 +24°C° 0 mm 1 m/s 733 mmHg 72%
20:00 +23°C° 0.1 mm 1 m/s 733 mmHg 75%
21:00 +22°C° 0.1 mm 1 m/s 733 mmHg 78%
22:00 +21°C° 0.1 mm 1 m/s 733 mmHg 81%
23:00 +21°C° 0 mm 1 m/s 733 mmHg 82%

31 Julho, Sábado

Tempo Temperatura Precipitação Vento Pressão Humidade
00:00 +20°C° 0 mm 1 m/s 733 mmHg 83%
01:00 +20°C° 0 mm 1 m/s 733 mmHg 84%
02:00 +18°C° 0 mm 0 m/s 733 mmHg 85%
03:00 +18°C° 0 mm 0 m/s 732 mmHg 87%
04:00 +18°C° 0 mm 0 m/s 732 mmHg 88%
05:00 +19°C° 0.1 mm 0 m/s 732 mmHg 84%
06:00 +22°C° 0.1 mm 1 m/s 732 mmHg 80%
07:00 +23°C° 0.1 mm 1 m/s 733 mmHg 76%
08:00 +24°C° 0.2 mm 1 m/s 733 mmHg 72%
09:00 +25°C° 0.2 mm 2 m/s 733 mmHg 67%
10:00 +27°C° 0.2 mm 2 m/s 733 mmHg 62%
11:00 +27°C° 0.5 mm 2 m/s 732 mmHg 59%
12:00 +28°C° 0.5 mm 3 m/s 732 mmHg 55%
13:00 +29°C° 0.5 mm 3 m/s 732 mmHg 52%
14:00 +28°C° 0.2 mm 4 m/s 732 mmHg 53%
15:00 +28°C° 0.2 mm 4 m/s 732 mmHg 53%
16:00 +27°C° 0.2 mm 5 m/s 732 mmHg 54%
17:00 +26°C° 0.1 mm 4 m/s 733 mmHg 59%
18:00 +23°C° 0.1 mm 4 m/s 733 mmHg 64%
19:00 +21°C° 0.1 mm 3 m/s 733 mmHg 70%
20:00 +20°C° 0 mm 3 m/s 733 mmHg 72%
21:00 +19°C° 0 mm 2 m/s 734 mmHg 74%
22:00 +18°C° 0 mm 2 m/s 734 mmHg 76%
23:00 +18°C° 0 mm 2 m/s 734 mmHg 74%

1 Agosto, Domingo

Tempo Temperatura Precipitação Vento Pressão Humidade
00:00 +18°C° 0 mm 2 m/s 734 mmHg 73%
01:00 +18°C° 0 mm 2 m/s 734 mmHg 71%
02:00 +17°C° 0 mm 2 m/s 735 mmHg 70%
03:00 +18°C° 0 mm 1 m/s 735 mmHg 70%
04:00 +18°C° 0 mm 1 m/s 735 mmHg 69%
05:00 +18°C° 0 mm 2 m/s 735 mmHg 67%
06:00 +19°C° 0 mm 2 m/s 735 mmHg 64%
07:00 +20°C° 0 mm 2 m/s 735 mmHg 61%
08:00 +21°C° 0 mm 2 m/s 735 mmHg 57%
09:00 +23°C° 0 mm 2 m/s 735 mmHg 54%
10:00 +24°C° 0 mm 2 m/s 735 mmHg 51%
11:00 +24°C° 0 mm 2 m/s 735 mmHg 51%
12:00 +24°C° 0 mm 2 m/s 735 mmHg 51%
13:00 +24°C° 0 mm 3 m/s 735 mmHg 51%
14:00 +24°C° 0 mm 3 m/s 734 mmHg 53%
15:00 +24°C° 0 mm 2 m/s 734 mmHg 54%
16:00 +24°C° 0 mm 2 m/s 734 mmHg 56%
17:00 +23°C° 0.1 mm 2 m/s 734 mmHg 61%
18:00 +20°C° 0.1 mm 2 m/s 734 mmHg 66%
19:00 +20°C° 0.1 mm 1 m/s 733 mmHg 71%
20:00 +20°C° 0.1 mm 1 m/s 733 mmHg 72%
21:00 +20°C° 0.1 mm 1 m/s 733 mmHg 74%
22:00 +19°C° 0.1 mm 1 m/s 733 mmHg 75%
23:00 +18°C° 0.6 mm 1 m/s 733 mmHg 80%
Mostrar mais

Necessitamos do seu Consentimento

A Meteoprog e os seus Fornecedores de Serviços podem armazenar e aceder a dados pessoais como cookies, identificadores do dispositivo ou outras tecnologias semelhantes existentes no seu dispositivo e processar estes dados para personalizar conteúdos e anúncios, assim como funcionalidades nas redes sociais e análise de tráfego.

  • Armazenar e/ou aceder a informações no seu dispositivo

    Os cookies, identificadores do dispositivo ou outras informações podem ser armazenados ou acedidos no seu dispositivo, para os fins acima indicados.

  • Anúncios e conteúdos personalizados, medição de anúncios e conteúdos, dados sobre o público-alvo e desenvolvimento de produtos

    Os anúncios e os conteúdos podem ser personalizados com base num perfil. Podem ser adicionados dados adicionais para uma maior personalização dos anúncios e dos conteúdos. A eficácia dos anúncios e dos conteúdos pode ser medida. Podem ser obtidas informações sobre o público que visualizou os anúncios e os conteúdos. Estes dados podem ser usados para desenvolver ou melhorar sistemas, softwares ou a experiência do utilizador.

Ao clicar em "Eu concordo”, permitirá o uso de cookies, identificadores do dispositivo e web beacons mencionados ou outras tecnologias semelhantes. As configurações do navegador do seu dispositivo podem ser alteradas.

Para certos fins, podem ser invocados interesses legítimos ao invés de consentimento. Pode ler mais informação sobre este assunto na nossa Política de Privacidade e Cookies.